Regional Weather Roundup
Issued by NWS Northern Indiana

Home | Current Version | Previous Version | Graphics & Text | Print | Product List | Glossary On
Versions: 1 2 3 4 5 6 7 8 9 10 11 12 13 14 15 16 17 18 19 20 21 22 23 24 25 26 27 28 29 30 31 32 33 34 35 36 37 38 39 40 41 42 43 44 45 46 47 48 49 50
421
ASUS43 KIWX 292200
RWRIWX

KIWX WEATHER ROUNDUP
NATIONAL WEATHER SERVICE NORTHERN INDIANA
600 PM EDT SUN MAY 29 2016

NOTE: "FAIR" INDICATES FEW OR NO CLOUDS BELOW 12,000 FEET WITH NO
SIGNIFICANT WEATHER AND/OR OBSTRUCTIONS TO VISIBILITY.

* THESE STATIONS ARE NOT UNDER NWS QUALITY CONTROL. THEY ALSO MAY NOT
  REPORT WEATHER SUCH AS PRECIPITATION OR FOG.

INZ001>027-292300-
NORTHERN INDIANA

CITY           SKY/WX    TMP DP  RH WIND       PRES   REMARKS
GARY*          MOSUNNY   81  66  61 W16       30.01S
SOUTH BEND     SUNNY     80  58  46 NW16      29.99S
ELKHART*       SUNNY     82  64  54 MISG      29.98F
GOSHEN         MOSUNNY   81  55  40 W17G25    29.97F
ANGOLA*          N/A     84  81  89 W10       29.96F HX  98
FORT WAYNE     MOSUNNY   88  49  25 W16G26    29.97F
PERU/GRISSOM   MOSUNNY   85  55  35 W17G25    29.98F

$$
INZ028>050-292300-
CENTRAL INDIANA

CITY           SKY/WX    TMP DP  RH WIND       PRES   REMARKS
LAFAYETTE      SUNNY     83  52  34 W12       30.00S
KOKOMO*        SUNNY     84  55  37 W13       29.99S
MUNCIE*        SUNNY     86  61  42 SW12      30.00F
INDIANAPOLIS   CLOUDY    80  65  59 S17       30.01S THUNDER

$$
MIZ043>046-050>051-056>058-064>065-071>073-077>080-292300-
SOUTHWEST LOWER MICHIGAN

CITY           SKY/WX    TMP DP  RH WIND       PRES   REMARKS
BATTLE CREEK   SUNNY     79  59  50 W21G26    29.96F
BENTON HARBOR  SUNNY     75  59  57 W15       29.99F
COLDWATER*     MOSUNNY   82  51  34 W14G24    29.95F
HILLSDALE*     MOSUNNY   82  41  23 W13G22    29.97S
HOLLAND        SUNNY     75  59  57 SW18      29.98F
GRAND RAPIDS   MOSUNNY   78  58  49 W22G31    29.96S
KALAMAZOO      SUNNY     79  55  43 W18G26    29.97F
STURGIS*       MOSUNNY   82  59  45 W12G21    29.96S
THREE RIVERS*  FAIR      81  57  43 W13G18    29.97S

$$
OHZ001>008-015>018-024>025-292300-
NORTHWEST OHIO

CITY           SKY/WX    TMP DP  RH WIND       PRES   REMARKS
DEFIANCE       MOSUNNY   88  51  28 W12G21    29.95S
FINDLAY        MOSUNNY   81  59  47 W17       29.96S
TOLEDO EXPRESS CLOUDY    79  65  62 SW10      29.94S
TOLEDO METCALF MOSUNNY   82  61  48 W12       29.94S
LIMA           MOSUNNY   81  61  50 NW13      29.98S

$$
AND FOR LAKE MICHIGAN COASTAL AND OPEN LAKE BUOY OBSERVATIONS

STATION/POSITION TEMP    WIND        PRES    VSBY  WAVE
                 AIR SEA DIR/SP/G                  HT/PER
                 (F)     (DEG/KT/KT) (MB)    (MI)  (FT/S)
CALUMET HARBOR    80     230/  7/ 16 1015.4F
MICHIGAN CITY     64     230/  4/  4   N/A
BURNS HARBOR      66     310/ 11/ 13 1016.3F
SAINT JOSEPH      70     230/  5/  7 1016.6F
SOUTH LAKE BUOY   58 51  180/ 10/ 12 1014.6          1
4 MI NW BRIDGMAN  62 61  290/  8/ 10   N/A           1/ 2
MICHIGAN CITY     63 58  300/  8/  8   N/A           1/ 3

$$
&&




USA.gov is the U.S. government's official web portal to all federal, state and local government web resources and services.